Time,TemperatureF,DewpointF,PressureIn,WindDirection,WindDirectionDegrees,WindSpeedMPH,WindSpeedGustMPH,Humidity,HourlyPrecipIn,Conditions,Clouds,dailyrainin,SoftwareType,DateUTC
2013-06-10 00:00:00,72.1,70.7,29.65,SE,135,0.0,0.7,94,0.00,,,0.01,fowsr,2013-06-10 04:00:00,
2013-06-10 00:05:00,72.1,70.7,29.65,SE,135,0.0,0.7,94,0.00,,,0.01,fowsr,2013-06-10 04:05:00,
2013-06-10 00:10:00,72.1,70.7,29.65,SE,135,0.0,0.7,94,0.00,,,0.01,fowsr,2013-06-10 04:10:00,
2013-06-10 00:15:00,72.1,70.7,29.65,SE,135,0.0,0.0,94,0.00,,,0.01,fowsr,2013-06-10 04:15:00,
2013-06-10 00:20:00,72.1,70.7,29.65,ENE,67,0.0,0.7,94,0.00,,,0.01,fowsr,2013-06-10 04:20:00,
2013-06-10 00:25:00,72.0,70.5,29.65,SSE,157,0.0,0.7,94,0.00,,,0.01,fowsr,2013-06-10 04:25:00,
2013-06-10 00:30:00,72.0,70.5,29.65,SW,225,0.0,1.6,94,0.00,,,0.01,fowsr,2013-06-10 04:30:00,
2013-06-10 00:35:00,72.0,70.5,29.65,East,90,0.0,0.0,94,0.00,,,0.01,fowsr,2013-06-10 04:35:00,
2013-06-10 00:40:00,72.0,70.5,29.65,East,90,0.0,1.6,94,0.00,,,0.01,fowsr,2013-06-10 04:40:00,
2013-06-10 00:45:00,72.0,70.5,29.65,East,90,0.0,0.0,94,0.00,,,0.01,fowsr,2013-06-10 04:45:00,
2013-06-10 00:50:00,72.0,70.5,29.65,East,90,0.0,0.0,94,0.00,,,0.01,fowsr,2013-06-10 04:50:00,
2013-06-10 00:55:00,72.0,70.5,29.64,SE,135,0.0,0.7,94,0.00,,,0.01,fowsr,2013-06-10 04:55:00,
2013-06-10 01:00:00,72.0,70.5,29.64,East,90,0.0,0.7,94,0.00,,,0.01,fowsr,2013-06-10 05:00:00,
2013-06-10 01:05:00,72.0,70.5,29.65,SE,135,0.0,1.6,94,0.00,,,0.01,fowsr,2013-06-10 05:05:00,
2013-06-10 01:10:00,72.0,70.8,29.64,SSE,157,1.6,3.8,95,0.01,,,0.02,fowsr,2013-06-10 05:10:00,
2013-06-10 01:15:00,72.0,70.8,29.64,SE,135,0.0,1.6,95,0.01,,,0.02,fowsr,2013-06-10 05:15:00,
2013-06-10 01:20:00,72.0,70.8,29.65,ESE,112,0.0,0.7,95,0.01,,,0.02,fowsr,2013-06-10 05:20:00,
2013-06-10 01:25:00,72.1,70.9,29.64,East,90,0.7,1.6,95,0.01,,,0.02,fowsr,2013-06-10 05:25:00,
2013-06-10 01:30:00,72.1,70.9,29.64,East,90,1.6,3.8,95,0.01,,,0.02,fowsr,2013-06-10 05:30:00,
2013-06-10 01:35:00,72.1,70.9,29.64,SE,135,0.7,1.6,95,0.01,,,0.02,fowsr,2013-06-10 05:35:00,
2013-06-10 01:40:00,72.1,70.9,29.63,West,270,0.0,0.0,95,0.01,,,0.02,fowsr,2013-06-10 05:40:00,
2013-06-10 01:45:00,72.1,70.9,29.64,SW,225,0.0,0.0,95,0.01,,,0.02,fowsr,2013-06-10 05:45:00,
2013-06-10 01:50:00,72.3,71.1,29.64,SE,135,0.0,0.7,95,0.01,,,0.02,fowsr,2013-06-10 05:50:00,
2013-06-10 01:55:00,72.3,71.1,29.63,South,180,0.7,2.2,95,0.01,,,0.02,fowsr,2013-06-10 05:55:00,
2013-06-10 02:00:00,72.3,71.1,29.63,SE,135,0.7,1.6,95,0.01,,,0.02,fowsr,2013-06-10 06:00:00,
2013-06-10 02:05:00,72.3,71.1,29.63,SE,135,0.7,1.6,95,0.01,,,0.02,fowsr,2013-06-10 06:05:00,
2013-06-10 02:10:00,72.5,71.3,29.63,East,90,0.7,2.2,95,0.01,,,0.02,fowsr,2013-06-10 06:10:00,
2013-06-10 02:15:00,72.7,71.5,29.62,East,90,0.0,0.7,95,0.00,,,0.02,fowsr,2013-06-10 06:15:00,
2013-06-10 02:20:00,72.7,71.5,29.62,SW,225,0.7,2.2,95,0.00,,,0.02,fowsr,2013-06-10 06:20:00,
2013-06-10 02:25:00,72.7,71.7,29.62,East,90,1.6,3.1,96,0.00,,,0.02,fowsr,2013-06-10 06:25:00,
2013-06-10 02:30:00,72.9,71.9,29.62,SE,135,0.0,0.7,96,0.00,,,0.02,fowsr,2013-06-10 06:30:00,
2013-06-10 02:35:00,72.9,71.9,29.62,East,90,0.0,0.7,96,0.00,,,0.02,fowsr,2013-06-10 06:35:00,
2013-06-10 02:40:00,72.9,71.9,29.62,SE,135,1.6,3.1,96,0.00,,,0.02,fowsr,2013-06-10 06:40:00,
2013-06-10 02:45:00,72.9,71.9,29.62,SE,135,0.0,0.7,96,0.00,,,0.02,fowsr,2013-06-10 06:45:00,
2013-06-10 02:50:00,72.9,71.9,29.62,SE,135,0.0,0.0,96,0.00,,,0.02,fowsr,2013-06-10 06:50:00,
2013-06-10 02:55:00,72.9,71.9,29.62,SE,135,0.7,3.8,96,0.00,,,0.02,fowsr,2013-06-10 06:55:00,
2013-06-10 03:00:00,72.9,71.9,29.62,NNE,22,0.0,0.7,96,0.00,,,0.02,fowsr,2013-06-10 07:00:00,
2013-06-10 03:05:00,72.9,71.9,29.62,East,90,0.0,0.7,96,0.00,,,0.02,fowsr,2013-06-10 07:05:00,
2013-06-10 03:10:00,72.9,71.9,29.61,NE,45,0.0,0.0,96,0.00,,,0.02,fowsr,2013-06-10 07:10:00,
2013-06-10 03:15:00,72.9,71.9,29.61,South,180,0.0,0.0,96,0.00,,,0.02,fowsr,2013-06-10 07:15:00,
2013-06-10 03:20:00,72.9,71.9,29.61,SW,225,0.0,0.7,96,0.00,,,0.02,fowsr,2013-06-10 07:20:00,
2013-06-10 03:25:00,73.0,72.1,29.61,SE,135,0.0,0.7,96,0.00,,,0.02,fowsr,2013-06-10 07:25:00,
2013-06-10 03:30:00,72.9,71.9,29.61,NE,45,0.0,1.6,96,0.00,,,0.02,fowsr,2013-06-10 07:30:00,
2013-06-10 03:35:00,73.0,72.1,29.62,North,0,0.0,0.7,96,0.00,,,0.02,fowsr,2013-06-10 07:35:00,
2013-06-10 03:40:00,73.0,72.1,29.61,SE,135,0.7,1.6,96,0.00,,,0.02,fowsr,2013-06-10 07:40:00,
2013-06-10 03:45:00,73.0,72.1,29.61,East,90,0.0,0.7,96,0.00,,,0.02,fowsr,2013-06-10 07:45:00,
2013-06-10 03:50:00,73.0,72.1,29.61,NE,45,0.0,0.7,96,0.00,,,0.02,fowsr,2013-06-10 07:50:00,
2013-06-10 03:55:00,73.0,72.1,29.61,SSE,157,1.6,3.1,96,0.00,,,0.02,fowsr,2013-06-10 07:55:00,
2013-06-10 04:00:00,73.2,72.3,29.61,SE,135,0.0,0.7,96,0.00,,,0.02,fowsr,2013-06-10 08:00:00,
2013-06-10 04:05:00,73.2,72.3,29.61,SE,135,0.0,0.7,96,0.00,,,0.02,fowsr,2013-06-10 08:05:00,
2013-06-10 04:10:00,73.2,72.3,29.60,SW,225,1.6,2.2,96,0.00,,,0.02,fowsr,2013-06-10 08:10:00,
2013-06-10 04:15:00,73.2,72.3,29.60,East,90,0.7,1.6,96,0.00,,,0.02,fowsr,2013-06-10 08:15:00,
2013-06-10 04:20:00,73.2,72.3,29.60,North,0,0.0,0.7,96,0.00,,,0.02,fowsr,2013-06-10 08:20:00,
2013-06-10 04:25:00,73.2,72.3,29.60,SE,135,0.0,1.6,96,0.00,,,0.02,fowsr,2013-06-10 08:25:00,
2013-06-10 04:30:00,73.2,72.3,29.60,East,90,0.0,0.7,96,0.00,,,0.02,fowsr,2013-06-10 08:30:00,
2013-06-10 04:35:00,73.4,72.4,29.60,SE,135,0.0,0.7,96,0.00,,,0.02,fowsr,2013-06-10 08:35:00,
2013-06-10 04:40:00,73.2,72.3,29.60,SE,135,0.0,0.0,96,0.00,,,0.02,fowsr,2013-06-10 08:40:00,
2013-06-10 04:45:00,73.2,72.3,29.60,East,90,0.0,0.7,96,0.00,,,0.02,fowsr,2013-06-10 08:45:00,
2013-06-10 04:50:00,73.2,72.3,29.60,NE,45,0.0,1.6,96,0.00,,,0.02,fowsr,2013-06-10 08:50:00,
2013-06-10 04:55:00,73.2,72.3,29.59,East,90,0.0,0.7,96,0.00,,,0.02,fowsr,2013-06-10 08:55:00,
2013-06-10 05:00:00,73.2,72.3,29.59,SE,135,0.0,0.7,96,0.00,,,0.02,fowsr,2013-06-10 09:00:00,
2013-06-10 05:05:00,73.2,72.3,29.59,SE,135,0.0,0.7,96,0.00,,,0.02,fowsr,2013-06-10 09:05:00,
2013-06-10 05:10:00,73.2,72.3,29.59,SE,135,0.0,0.7,96,0.00,,,0.02,fowsr,2013-06-10 09:10:00,
2013-06-10 05:15:00,73.2,72.3,29.59,South,180,0.0,0.7,96,0.00,,,0.02,fowsr,2013-06-10 09:15:00,
2013-06-10 05:20:00,73.2,72.3,29.59,South,180,0.0,0.7,96,0.00,,,0.02,fowsr,2013-06-10 09:20:00,
2013-06-10 05:25:00,73.2,72.3,29.59,SE,135,0.0,1.6,96,0.00,,,0.02,fowsr,2013-06-10 09:25:00,
2013-06-10 05:30:00,73.2,72.3,29.59,SE,135,0.0,2.2,96,0.00,,,0.02,fowsr,2013-06-10 09:30:00,
2013-06-10 05:35:00,73.2,72.3,29.59,East,90,0.0,1.6,96,0.00,,,0.02,fowsr,2013-06-10 09:35:00,
2013-06-10 05:40:00,73.2,72.3,29.60,SE,135,0.7,2.2,96,0.00,,,0.02,fowsr,2013-06-10 09:40:00,
2013-06-10 05:45:00,73.4,72.4,29.59,SW,225,0.0,0.7,96,0.00,,,0.02,fowsr,2013-06-10 09:45:00,
2013-06-10 05:50:00,73.4,72.4,29.59,SE,135,0.0,0.0,96,0.00,,,0.02,fowsr,2013-06-10 09:50:00,
2013-06-10 05:55:00,73.4,72.4,29.60,NE,45,0.0,0.7,96,0.00,,,0.02,fowsr,2013-06-10 09:55:00,
2013-06-10 06:00:00,73.4,72.4,29.59,ESE,112,0.7,2.2,96,0.00,,,0.02,fowsr,2013-06-10 10:00:00,
2013-06-10 06:05:00,73.4,72.4,29.59,ESE,112,0.7,2.2,96,0.00,,,0.02,fowsr,2013-06-10 10:05:00,
2013-06-10 06:10:00,73.4,72.4,29.59,SE,135,0.0,0.7,96,0.00,,,0.02,fowsr,2013-06-10 10:10:00,
2013-06-10 06:15:00,73.4,72.4,29.59,SE,135,0.0,0.0,96,0.00,,,0.02,fowsr,2013-06-10 10:15:00,
2013-06-10 06:20:00,73.6,72.6,29.59,North,0,1.6,2.2,96,0.00,,,0.02,fowsr,2013-06-10 10:20:00,
2013-06-10 06:25:00,73.6,72.6,29.59,SE,135,1.6,2.2,96,0.00,,,0.02,fowsr,2013-06-10 10:25:00,
2013-06-10 06:30:00,73.6,72.6,29.59,SE,135,0.0,1.6,96,0.00,,,0.02,fowsr,2013-06-10 10:30:00,
2013-06-10 06:35:00,73.6,72.6,29.59,SE,135,0.0,1.6,96,0.00,,,0.02,fowsr,2013-06-10 10:35:00,
2013-06-10 06:40:00,73.8,72.8,29.59,SE,135,0.7,1.6,96,0.00,,,0.02,fowsr,2013-06-10 10:40:00,
2013-06-10 06:45:00,73.8,72.8,29.59,SW,225,0.0,0.0,96,0.00,,,0.02,fowsr,2013-06-10 10:45:00,
2013-06-10 06:50:00,73.8,72.8,29.59,South,180,0.7,1.6,96,0.00,,,0.02,fowsr,2013-06-10 10:50:00,
2013-06-10 06:55:00,73.8,72.8,29.59,South,180,0.0,1.6,96,0.00,,,0.02,fowsr,2013-06-10 10:55:00,
2013-06-10 07:00:00,73.9,73.0,29.59,SSE,157,0.7,2.2,96,0.00,,,0.02,fowsr,2013-06-10 11:00:00,
2013-06-10 07:05:00,73.9,73.0,29.59,SE,135,0.0,1.6,96,0.00,,,0.02,fowsr,2013-06-10 11:05:00,
2013-06-10 07:10:00,73.9,73.0,29.59,East,90,0.0,0.7,96,0.00,,,0.02,fowsr,2013-06-10 11:10:00,
2013-06-10 07:15:00,74.1,73.2,29.59,SE,135,0.0,0.0,96,0.00,,,0.02,fowsr,2013-06-10 11:15:00,
2013-06-10 07:20:00,74.1,73.2,29.59,SE,135,0.0,0.7,96,0.00,,,0.02,fowsr,2013-06-10 11:20:00,
2013-06-10 07:25:00,74.3,73.3,29.59,SE,135,0.7,2.2,96,0.00,,,0.02,fowsr,2013-06-10 11:25:00,
2013-06-10 07:30:00,74.3,73.3,29.59,SE,135,0.0,0.7,96,0.00,,,0.02,fowsr,2013-06-10 11:30:00,
2013-06-10 07:35:00,74.5,73.5,29.59,SE,135,1.6,3.8,96,0.00,,,0.02,fowsr,2013-06-10 11:35:00,
2013-06-10 07:40:00,74.7,73.7,29.60,SE,135,3.1,5.4,96,0.00,,,0.02,fowsr,2013-06-10 11:40:00,
2013-06-10 07:45:00,74.7,73.7,29.59,South,180,0.0,1.6,96,0.00,,,0.02,fowsr,2013-06-10 11:45:00,
2013-06-10 07:50:00,74.7,73.7,29.59,SE,135,0.0,1.6,96,0.00,,,0.02,fowsr,2013-06-10 11:50:00,
2013-06-10 07:55:00,74.7,73.7,29.59,East,90,0.0,0.7,96,0.00,,,0.02,fowsr,2013-06-10 11:55:00,
2013-06-10 08:00:00,74.8,73.9,29.59,SE,135,1.6,3.8,96,0.00,,,0.02,fowsr,2013-06-10 12:00:00,
2013-06-10 08:05:00,75.0,74.1,29.59,East,90,0.7,3.1,96,0.00,,,0.02,fowsr,2013-06-10 12:05:00,
2013-06-10 08:10:00,75.2,74.0,29.59,SE,135,1.6,2.2,95,0.00,,,0.02,fowsr,2013-06-10 12:10:00,
2013-06-10 08:15:00,75.2,74.0,29.59,East,90,0.7,2.2,95,0.00,,,0.02,fowsr,2013-06-10 12:15:00,
2013-06-10 08:20:00,75.6,74.1,29.59,SE,135,1.6,3.1,94,0.00,,,0.02,fowsr,2013-06-10 12:20:00,
2013-06-10 08:25:00,75.7,74.3,29.59,SE,135,0.0,1.6,94,0.00,,,0.02,fowsr,2013-06-10 12:25:00,
2013-06-10 08:30:00,75.7,74.3,29.59,SE,135,0.0,1.6,94,0.00,,,0.02,fowsr,2013-06-10 12:30:00,
2013-06-10 08:35:00,75.9,74.4,29.60,SE,135,0.7,2.2,94,0.00,,,0.02,fowsr,2013-06-10 12:35:00,
2013-06-10 08:40:00,76.1,74.6,29.59,South,180,0.7,4.5,94,0.00,,,0.02,fowsr,2013-06-10 12:40:00,
2013-06-10 08:45:00,76.1,74.4,29.59,SE,135,0.0,1.6,93,0.00,,,0.02,fowsr,2013-06-10 12:45:00,
2013-06-10 08:50:00,76.3,74.5,29.60,SE,135,0.0,2.2,93,0.00,,,0.02,fowsr,2013-06-10 12:50:00,
2013-06-10 08:55:00,76.3,74.5,29.60,East,90,0.7,2.2,93,0.00,,,0.02,fowsr,2013-06-10 12:55:00,
2013-06-10 09:00:00,76.6,74.9,29.60,SE,135,2.2,3.1,93,0.00,,,0.02,fowsr,2013-06-10 13:00:00,
2013-06-10 09:05:00,77.0,74.7,29.59,SE,135,0.7,1.6,91,0.00,,,0.02,fowsr,2013-06-10 13:05:00,
2013-06-10 09:10:00,77.0,74.7,29.60,SE,135,0.7,1.6,91,0.00,,,0.02,fowsr,2013-06-10 13:10:00,
2013-06-10 09:15:00,77.0,74.5,29.59,SE,135,0.0,1.6,90,0.00,,,0.02,fowsr,2013-06-10 13:15:00,
2013-06-10 09:20:00,77.0,74.5,29.59,SE,135,0.7,1.6,90,0.00,,,0.02,fowsr,2013-06-10 13:20:00,
2013-06-10 09:25:00,77.0,74.5,29.59,SE,135,2.2,4.5,90,0.00,,,0.02,fowsr,2013-06-10 13:25:00,
2013-06-10 09:30:00,76.8,74.6,29.59,East,90,2.2,4.5,91,0.00,,,0.02,fowsr,2013-06-10 13:30:00,
2013-06-10 09:35:00,76.8,74.6,29.59,SE,135,0.0,1.6,91,0.00,,,0.02,fowsr,2013-06-10 13:35:00,
2013-06-10 09:40:00,76.8,74.6,29.59,SE,135,1.6,3.1,91,0.00,,,0.02,fowsr,2013-06-10 13:40:00,
2013-06-10 09:45:00,77.0,74.5,29.59,South,180,2.2,4.5,90,0.00,,,0.02,fowsr,2013-06-10 13:45:00,
2013-06-10 09:50:00,77.2,74.4,29.59,SE,135,0.7,1.6,89,0.00,,,0.02,fowsr,2013-06-10 13:50:00,
2013-06-10 09:55:00,77.4,74.6,29.59,SW,225,0.0,0.7,89,0.00,,,0.02,fowsr,2013-06-10 13:55:00,
2013-06-10 10:00:00,77.5,74.7,29.59,SE,135,0.7,1.6,89,0.00,,,0.02,fowsr,2013-06-10 14:00:00,
2013-06-10 10:05:00,77.5,74.5,29.59,NE,45,0.0,2.2,88,0.00,,,0.02,fowsr,2013-06-10 14:05:00,
2013-06-10 10:10:00,77.5,74.5,29.59,SE,135,0.7,1.6,88,0.00,,,0.02,fowsr,2013-06-10 14:10:00,
2013-06-10 10:15:00,77.7,74.7,29.59,East,90,0.0,0.7,88,0.00,,,0.02,fowsr,2013-06-10 14:15:00,
2013-06-10 10:20:00,77.9,74.8,29.58,SE,135,1.6,3.1,88,0.00,,,0.02,fowsr,2013-06-10 14:20:00,
2013-06-10 10:25:00,78.1,75.0,29.58,ENE,67,3.1,7.6,88,0.00,,,0.02,fowsr,2013-06-10 14:25:00,
2013-06-10 10:30:00,78.3,74.9,29.58,East,90,2.2,4.5,87,0.00,,,0.02,fowsr,2013-06-10 14:30:00,
2013-06-10 10:35:00,78.6,75.3,29.58,SE,135,1.6,3.1,87,0.00,,,0.02,fowsr,2013-06-10 14:35:00,
2013-06-10 10:40:00,78.8,74.9,29.58,SE,135,0.0,1.6,85,0.00,,,0.02,fowsr,2013-06-10 14:40:00,
2013-06-10 10:45:00,79.2,75.2,29.59,NE,45,0.0,0.0,85,0.00,,,0.02,fowsr,2013-06-10 14:45:00,
2013-06-10 10:50:00,79.3,75.4,29.58,NE,45,1.6,3.1,85,0.00,,,0.02,fowsr,2013-06-10 14:50:00,
2013-06-10 10:55:00,79.3,75.1,29.59,SE,135,2.2,3.1,84,0.00,,,0.02,fowsr,2013-06-10 14:55:00,
2013-06-10 11:00:00,79.3,75.1,29.58,SW,225,0.0,0.7,84,0.00,,,0.02,fowsr,2013-06-10 15:00:00,
2013-06-10 11:05:00,79.3,75.1,29.57,East,90,0.7,2.2,84,0.00,,,0.02,fowsr,2013-06-10 15:05:00,
2013-06-10 11:10:00,79.7,75.5,29.58,SE,135,0.0,0.7,84,0.00,,,0.02,fowsr,2013-06-10 15:10:00,
2013-06-10 11:15:00,80.1,75.8,29.58,SE,135,0.0,0.7,84,0.00,,,0.02,fowsr,2013-06-10 15:15:00,
2013-06-10 11:20:00,80.2,75.7,29.57,SW,225,0.7,2.2,83,0.00,,,0.02,fowsr,2013-06-10 15:20:00,
2013-06-10 11:25:00,80.2,75.4,29.57,SE,135,0.7,1.6,82,0.00,,,0.02,fowsr,2013-06-10 15:25:00,
2013-06-10 11:30:00,80.2,75.4,29.57,SE,135,1.6,3.8,82,0.00,,,0.02,fowsr,2013-06-10 15:30:00,
2013-06-10 11:35:00,79.9,75.1,29.58,SW,225,0.7,1.6,82,0.00,,,0.02,fowsr,2013-06-10 15:35:00,
2013-06-10 11:40:00,79.5,74.7,29.58,SE,135,0.0,0.0,82,0.00,,,0.02,fowsr,2013-06-10 15:40:00,
2013-06-10 11:45:00,78.8,74.0,29.58,NE,45,0.0,0.7,82,0.00,,,0.02,fowsr,2013-06-10 15:45:00,
2013-06-10 11:50:00,77.5,72.8,29.57,SE,135,0.0,0.0,82,0.00,,,0.02,fowsr,2013-06-10 15:50:00,
2013-06-10 11:55:00,76.6,72.5,29.57,SE,135,0.0,0.7,84,0.00,,,0.02,fowsr,2013-06-10 15:55:00,
2013-06-10 12:00:00,76.1,72.2,29.57,SE,135,0.0,0.0,85,0.00,,,0.02,fowsr,2013-06-10 16:00:00,
2013-06-10 12:05:00,75.7,72.2,29.57,SE,135,0.0,0.0,86,0.00,,,0.02,fowsr,2013-06-10 16:05:00,
2013-06-10 12:10:00,75.6,72.3,29.56,SE,135,0.0,0.0,87,0.00,,,0.02,fowsr,2013-06-10 16:10:00,
2013-06-10 12:15:00,75.4,72.1,29.56,SE,135,0.0,0.7,87,0.00,,,0.02,fowsr,2013-06-10 16:15:00,
2013-06-10 12:20:00,75.2,72.4,29.56,SE,135,0.0,0.0,89,0.00,,,0.02,fowsr,2013-06-10 16:20:00,
2013-06-10 12:25:00,75.0,72.5,29.55,SE,135,0.0,0.0,90,0.01,,,0.04,fowsr,2013-06-10 16:25:00,
2013-06-10 12:30:00,75.0,72.8,29.56,SE,135,0.0,1.6,91,0.01,,,0.04,fowsr,2013-06-10 16:30:00,
2013-06-10 12:35:00,75.0,72.8,29.56,SE,135,0.0,0.0,91,0.01,,,0.04,fowsr,2013-06-10 16:35:00,
2013-06-10 12:40:00,75.6,73.3,29.56,SE,135,0.0,0.0,91,0.02,,,0.05,fowsr,2013-06-10 16:40:00,
2013-06-10 12:45:00,75.9,73.9,29.55,SE,135,0.0,0.0,92,0.02,,,0.05,fowsr,2013-06-10 16:45:00,
2013-06-10 12:50:00,76.1,74.1,29.55,SE,135,0.0,0.0,92,0.02,,,0.05,fowsr,2013-06-10 16:50:00,
2013-06-10 12:55:00,76.6,74.6,29.55,SE,135,1.6,2.2,92,0.02,,,0.05,fowsr,2013-06-10 16:55:00,
2013-06-10 13:00:00,77.2,74.9,29.55,East,90,0.7,1.6,91,0.02,,,0.05,fowsr,2013-06-10 17:00:00,
2013-06-10 13:05:00,77.4,75.1,29.56,SE,135,0.0,0.0,91,0.02,,,0.05,fowsr,2013-06-10 17:05:00,
2013-06-10 13:10:00,77.5,75.3,29.55,SE,135,0.0,0.7,91,0.05,,,0.07,fowsr,2013-06-10 17:10:00,
2013-06-10 13:15:00,77.2,74.9,29.55,SE,135,0.0,0.7,91,0.09,,,0.12,fowsr,2013-06-10 17:15:00,
2013-06-10 13:20:00,76.6,74.6,29.54,East,90,1.6,2.2,92,0.09,,,0.12,fowsr,2013-06-10 17:20:00,
2013-06-10 13:25:00,76.1,74.1,29.54,East,90,0.0,0.7,92,0.11,,,0.14,fowsr,2013-06-10 17:25:00,
2013-06-10 13:30:00,75.9,73.9,29.54,SE,135,0.0,0.7,92,0.11,,,0.14,fowsr,2013-06-10 17:30:00,
2013-06-10 13:35:00,76.3,74.5,29.54,SE,135,0.0,0.0,93,0.11,,,0.14,fowsr,2013-06-10 17:35:00,
2013-06-10 13:40:00,77.2,75.4,29.54,South,180,0.0,1.6,93,0.11,,,0.14,fowsr,2013-06-10 17:40:00,
2013-06-10 13:45:00,77.5,75.8,29.53,SE,135,0.0,2.2,93,0.09,,,0.14,fowsr,2013-06-10 17:45:00,
2013-06-10 13:50:00,77.7,76.0,29.54,SE,135,0.0,0.0,93,0.09,,,0.14,fowsr,2013-06-10 17:50:00,
2013-06-10 13:55:00,77.7,76.0,29.53,NE,45,0.0,0.7,93,0.11,,,0.15,fowsr,2013-06-10 17:55:00,
2013-06-10 14:00:00,77.5,75.8,29.51,SE,135,0.0,0.0,93,0.11,,,0.15,fowsr,2013-06-10 18:00:00,
2013-06-10 14:05:00,77.5,75.8,29.51,SW,225,0.7,1.6,93,0.11,,,0.15,fowsr,2013-06-10 18:05:00,
2013-06-10 14:10:00,77.7,76.0,29.51,SE,135,0.0,0.7,93,0.11,,,0.15,fowsr,2013-06-10 18:10:00,
2013-06-10 14:15:00,77.9,76.1,29.51,East,90,0.0,0.0,93,0.07,,,0.15,fowsr,2013-06-10 18:15:00,
2013-06-10 14:20:00,78.3,76.8,29.51,East,90,0.0,0.0,94,0.04,,,0.15,fowsr,2013-06-10 18:20:00,
2013-06-10 14:25:00,78.6,77.1,29.51,South,180,3.1,3.8,94,0.02,,,0.15,fowsr,2013-06-10 18:25:00,
2013-06-10 14:30:00,79.0,77.2,29.51,SE,135,0.0,0.7,93,0.01,,,0.15,fowsr,2013-06-10 18:30:00,
2013-06-10 14:35:00,79.0,77.2,29.51,East,90,2.2,5.4,93,0.01,,,0.15,fowsr,2013-06-10 18:35:00,
2013-06-10 14:40:00,78.8,76.5,29.50,SE,135,3.8,7.6,91,0.01,,,0.15,fowsr,2013-06-10 18:40:00,
2013-06-10 14:45:00,78.6,76.3,29.49,SE,135,0.7,2.2,91,0.01,,,0.15,fowsr,2013-06-10 18:45:00,
2013-06-10 14:50:00,78.6,76.3,29.49,NE,45,0.0,1.6,91,0.01,,,0.15,fowsr,2013-06-10 18:50:00,
2013-06-10 14:55:00,79.2,76.3,29.49,SE,135,1.6,3.1,89,0.01,,,0.15,fowsr,2013-06-10 18:55:00,
2013-06-10 15:00:00,80.1,77.2,29.50,SE,135,0.7,3.1,89,0.00,,,0.15,fowsr,2013-06-10 19:00:00,
2013-06-10 15:05:00,80.6,77.5,29.49,SE,135,0.7,2.2,88,0.00,,,0.15,fowsr,2013-06-10 19:05:00,
2013-06-10 15:10:00,81.1,77.4,29.49,SE,135,3.1,3.8,86,0.00,,,0.15,fowsr,2013-06-10 19:10:00,
2013-06-10 15:15:00,81.5,77.5,29.49,South,180,1.6,3.1,85,0.00,,,0.15,fowsr,2013-06-10 19:15:00,
2013-06-10 15:20:00,81.5,77.5,29.49,SE,135,0.0,2.2,85,0.00,,,0.15,fowsr,2013-06-10 19:20:00,
2013-06-10 15:25:00,81.7,78.0,29.49,SSE,157,0.7,2.2,86,0.00,,,0.15,fowsr,2013-06-10 19:25:00,
2013-06-10 15:30:00,81.7,77.7,29.48,SE,135,0.7,3.8,85,0.00,,,0.15,fowsr,2013-06-10 19:30:00,
2013-06-10 15:35:00,81.9,77.3,29.48,SE,135,0.0,1.6,83,0.00,,,0.15,fowsr,2013-06-10 19:35:00,
2013-06-10 15:40:00,82.2,77.3,29.47,SE,135,0.7,1.6,82,0.00,,,0.15,fowsr,2013-06-10 19:40:00,
2013-06-10 15:45:00,82.4,77.2,29.47,SW,225,1.6,5.4,81,0.00,,,0.15,fowsr,2013-06-10 19:45:00,
2013-06-10 15:50:00,82.6,76.8,29.47,South,180,3.1,6.0,79,0.00,,,0.15,fowsr,2013-06-10 19:50:00,
2013-06-10 15:55:00,82.8,76.7,29.47,South,180,2.2,7.6,78,0.00,,,0.15,fowsr,2013-06-10 19:55:00,
2013-06-10 16:00:00,82.9,76.8,29.47,North,0,1.6,3.1,78,0.00,,,0.15,fowsr,2013-06-10 20:00:00,
2013-06-10 16:05:00,83.1,76.7,29.47,NW,315,2.2,5.4,77,0.00,,,0.15,fowsr,2013-06-10 20:05:00,
2013-06-10 16:10:00,83.3,76.2,29.47,SW,225,0.7,2.2,75,0.00,,,0.15,fowsr,2013-06-10 20:10:00,
2013-06-10 16:15:00,83.5,76.1,29.46,East,90,0.7,2.2,74,0.00,,,0.15,fowsr,2013-06-10 20:15:00,
2013-06-10 16:20:00,83.5,76.1,29.45,SE,135,0.7,1.6,74,0.00,,,0.15,fowsr,2013-06-10 20:20:00,
2013-06-10 16:25:00,83.1,75.7,29.46,NE,45,0.7,2.2,74,0.00,,,0.15,fowsr,2013-06-10 20:25:00,
2013-06-10 16:30:00,82.9,75.2,29.45,SE,135,0.7,2.2,73,0.00,,,0.15,fowsr,2013-06-10 20:30:00,
2013-06-10 16:35:00,82.8,75.1,29.45,SE,135,0.0,0.7,73,0.00,,,0.15,fowsr,2013-06-10 20:35:00,
2013-06-10 16:40:00,82.4,75.7,29.45,SE,135,0.0,1.6,76,0.00,,,0.15,fowsr,2013-06-10 20:40:00,
2013-06-10 16:45:00,82.0,75.7,29.46,SE,135,0.7,2.2,77,0.00,,,0.15,fowsr,2013-06-10 20:45:00,
2013-06-10 16:50:00,81.7,75.6,29.46,East,90,0.0,1.6,78,0.00,,,0.15,fowsr,2013-06-10 20:50:00,
2013-06-10 16:55:00,81.3,75.6,29.47,SE,135,0.7,1.6,79,0.00,,,0.15,fowsr,2013-06-10 20:55:00,
2013-06-10 17:00:00,80.2,75.4,29.46,East,90,0.0,1.6,82,0.00,,,0.15,fowsr,2013-06-10 21:00:00,
2013-06-10 17:10:00,79.2,75.2,29.47,SE,135,0.0,0.0,85,0.00,,,0.15,fowsr,2013-06-10 21:10:00,
2013-06-10 17:15:00,78.8,75.2,29.47,East,90,0.0,0.7,86,0.00,,,0.15,fowsr,2013-06-10 21:15:00,
2013-06-10 17:20:00,78.3,74.9,29.47,North,0,1.6,5.4,87,0.01,,,0.17,fowsr,2013-06-10 21:20:00,
2013-06-10 17:25:00,77.7,74.4,29.46,West,270,0.0,1.6,87,0.01,,,0.17,fowsr,2013-06-10 21:25:00,
2013-06-10 17:30:00,77.4,74.0,29.47,East,90,0.7,1.6,87,0.01,,,0.17,fowsr,2013-06-10 21:30:00,
2013-06-10 17:35:00,77.0,73.7,29.47,SE,135,0.7,2.2,87,0.01,,,0.17,fowsr,2013-06-10 21:35:00,
2013-06-10 17:40:00,76.5,73.4,29.47,SE,135,0.7,2.2,88,0.02,,,0.18,fowsr,2013-06-10 21:40:00,
2013-06-10 17:45:00,76.3,73.8,29.47,East,90,0.7,1.6,90,0.04,,,0.19,fowsr,2013-06-10 21:45:00,
2013-06-10 17:50:00,75.9,73.7,29.46,South,180,1.6,3.8,91,0.04,,,0.19,fowsr,2013-06-10 21:50:00,
2013-06-10 17:55:00,75.9,73.7,29.46,East,90,0.0,0.7,91,0.04,,,0.19,fowsr,2013-06-10 21:55:00,
2013-06-10 18:00:00,75.9,73.7,29.46,East,90,0.7,3.1,91,0.04,,,0.19,fowsr,2013-06-10 22:00:00,
2013-06-10 18:05:00,75.7,73.5,29.45,SE,135,0.7,1.6,91,0.04,,,0.19,fowsr,2013-06-10 22:05:00,
2013-06-10 18:10:00,75.9,73.7,29.45,SE,135,0.7,3.1,91,0.04,,,0.19,fowsr,2013-06-10 22:10:00,
2013-06-10 18:15:00,75.7,73.5,29.45,West,270,0.0,0.0,91,0.04,,,0.19,fowsr,2013-06-10 22:15:00,
2013-06-10 18:20:00,75.7,73.5,29.46,SE,135,2.2,4.5,91,0.04,,,0.19,fowsr,2013-06-10 22:20:00,
2013-06-10 18:25:00,75.7,73.5,29.46,SE,135,0.0,1.6,91,0.02,,,0.19,fowsr,2013-06-10 22:25:00,
2013-06-10 18:30:00,75.9,73.7,29.46,SE,135,0.7,1.6,91,0.02,,,0.19,fowsr,2013-06-10 22:30:00,
2013-06-10 18:35:00,75.9,73.9,29.46,East,90,2.2,4.5,92,0.02,,,0.19,fowsr,2013-06-10 22:35:00,
2013-06-10 18:40:00,75.9,73.9,29.46,East,90,0.0,0.7,92,0.02,,,0.19,fowsr,2013-06-10 22:40:00,
2013-06-10 18:45:00,76.1,74.1,29.46,ESE,112,0.7,2.2,92,0.00,,,0.19,fowsr,2013-06-10 22:45:00,
2013-06-10 18:50:00,76.1,74.1,29.46,SW,225,0.0,1.6,92,0.00,,,0.19,fowsr,2013-06-10 22:50:00,
2013-06-10 18:55:00,76.1,74.1,29.46,South,180,0.0,1.6,92,0.00,,,0.19,fowsr,2013-06-10 22:55:00,
2013-06-10 19:00:00,76.1,74.1,29.46,SE,135,0.0,0.0,92,0.00,,,0.19,fowsr,2013-06-10 23:00:00,
2013-06-10 19:05:00,75.9,73.9,29.46,SE,135,0.0,0.7,92,0.00,,,0.19,fowsr,2013-06-10 23:05:00,
2013-06-10 19:10:00,75.7,73.8,29.46,North,0,0.0,0.7,92,0.00,,,0.19,fowsr,2013-06-10 23:10:00,
2013-06-10 19:15:00,75.7,73.8,29.46,SE,135,3.1,3.8,92,0.00,,,0.19,fowsr,2013-06-10 23:15:00,
2013-06-10 19:20:00,75.6,73.6,29.46,NW,315,0.0,0.7,92,0.00,,,0.19,fowsr,2013-06-10 23:20:00,
2013-06-10 19:25:00,75.6,73.6,29.47,SE,135,1.6,3.1,92,0.00,,,0.19,fowsr,2013-06-10 23:25:00,
2013-06-10 19:30:00,75.6,73.6,29.47,SE,135,0.7,1.6,92,0.00,,,0.19,fowsr,2013-06-10 23:30:00,
2013-06-10 19:35:00,75.4,73.4,29.47,SSW,202,2.2,4.5,92,0.00,,,0.19,fowsr,2013-06-10 23:35:00,
2013-06-10 19:40:00,75.4,73.4,29.47,West,270,0.0,1.6,92,0.00,,,0.19,fowsr,2013-06-10 23:40:00,
2013-06-10 19:45:00,75.4,73.4,29.47,East,90,0.7,2.2,92,0.00,,,0.19,fowsr,2013-06-10 23:45:00,
2013-06-10 19:50:00,75.2,73.0,29.47,SE,135,0.0,0.7,91,0.00,,,0.19,fowsr,2013-06-10 23:50:00,
2013-06-10 19:55:00,75.2,73.0,29.47,South,180,0.7,3.1,91,0.00,,,0.19,fowsr,2013-06-10 23:55:00,
2013-06-10 20:00:00,75.0,73.0,29.47,ESE,112,3.8,7.6,92,0.00,,,0.19,fowsr,2013-06-11 00:00:00,
2013-06-10 20:05:00,75.0,73.0,29.47,South,180,2.2,3.8,92,0.00,,,0.19,fowsr,2013-06-11 00:05:00,
2013-06-10 20:10:00,74.8,72.9,29.47,East,90,1.6,3.1,92,0.00,,,0.19,fowsr,2013-06-11 00:10:00,
2013-06-10 20:15:00,74.8,72.9,29.47,SE,135,2.2,3.8,92,0.00,,,0.19,fowsr,2013-06-11 00:15:00,
2013-06-10 20:20:00,74.7,72.7,29.47,West,270,0.0,0.7,92,0.00,,,0.19,fowsr,2013-06-11 00:20:00,
2013-06-10 20:25:00,74.5,72.5,29.47,SE,135,0.7,2.2,92,0.00,,,0.19,fowsr,2013-06-11 00:25:00,
2013-06-10 20:30:00,74.5,72.5,29.47,East,90,0.7,3.8,92,0.00,,,0.19,fowsr,2013-06-11 00:30:00,
2013-06-10 20:35:00,74.3,72.3,29.47,East,90,2.2,5.4,92,0.00,,,0.19,fowsr,2013-06-11 00:35:00,
2013-06-10 20:40:00,74.1,72.2,29.47,NW,315,0.7,2.2,92,0.00,,,0.18,fowsr,2013-06-11 00:40:00,
2013-06-10 20:45:00,74.1,72.2,29.47,South,180,0.0,0.7,92,0.00,,,0.18,fowsr,2013-06-11 00:45:00,
2013-06-10 20:50:00,73.9,72.0,29.47,SE,135,1.6,3.1,92,0.00,,,0.18,fowsr,2013-06-11 00:50:00,
2013-06-10 20:55:00,73.9,72.0,29.47,East,90,0.0,1.6,92,0.00,,,0.18,fowsr,2013-06-11 00:55:00,
2013-06-10 21:00:00,73.8,71.8,29.47,East,90,0.0,1.6,92,0.00,,,0.18,fowsr,2013-06-11 01:00:00,
2013-06-10 21:05:00,73.8,71.8,29.47,South,180,0.0,2.2,92,0.00,,,0.18,fowsr,2013-06-11 01:05:00,
2013-06-10 21:10:00,73.6,71.6,29.47,SE,135,0.7,2.2,92,0.00,,,0.18,fowsr,2013-06-11 01:10:00,
2013-06-10 21:15:00,73.6,71.6,29.47,SE,135,1.6,3.8,92,0.00,,,0.18,fowsr,2013-06-11 01:15:00,
2013-06-10 21:20:00,73.6,71.6,29.47,SE,135,0.0,0.7,92,0.00,,,0.18,fowsr,2013-06-11 01:20:00,
2013-06-10 21:25:00,73.4,71.7,29.47,SE,135,0.0,0.7,93,0.00,,,0.18,fowsr,2013-06-11 01:25:00,
2013-06-10 21:30:00,73.4,71.7,29.47,SE,135,0.0,1.6,93,0.00,,,0.18,fowsr,2013-06-11 01:30:00,
2013-06-10 21:40:00,73.4,71.7,29.47,SE,135,0.0,1.6,93,0.00,,,0.18,fowsr,2013-06-11 01:40:00,
2013-06-10 21:45:00,73.4,71.7,29.47,South,180,1.6,2.2,93,0.00,,,0.18,fowsr,2013-06-11 01:45:00,
2013-06-10 21:50:00,73.4,71.7,29.47,East,90,0.0,0.7,93,0.00,,,0.18,fowsr,2013-06-11 01:50:00,
2013-06-10 21:55:00,73.4,71.7,29.48,SE,135,0.0,1.6,93,0.00,,,0.18,fowsr,2013-06-11 01:55:00,
2013-06-10 22:00:00,73.4,71.7,29.48,SE,135,1.6,2.2,93,0.00,,,0.18,fowsr,2013-06-11 02:00:00,
2013-06-10 22:05:00,73.4,71.7,29.48,SE,135,0.7,2.2,93,0.00,,,0.18,fowsr,2013-06-11 02:05:00,
2013-06-10 22:10:00,73.4,71.7,29.49,East,90,1.6,3.8,93,0.00,,,0.18,fowsr,2013-06-11 02:10:00,
2013-06-10 22:15:00,73.4,71.7,29.49,SW,225,0.7,1.6,93,0.00,,,0.18,fowsr,2013-06-11 02:15:00,
2013-06-10 22:20:00,73.4,71.7,29.49,NW,315,0.7,3.1,93,0.00,,,0.18,fowsr,2013-06-11 02:20:00,
2013-06-10 22:25:00,73.6,71.9,29.50,South,180,1.6,4.5,93,0.00,,,0.18,fowsr,2013-06-11 02:25:00,
2013-06-10 22:30:00,73.6,71.9,29.50,South,180,0.7,2.2,93,0.00,,,0.18,fowsr,2013-06-11 02:30:00,
2013-06-10 22:35:00,73.6,71.9,29.50,SE,135,0.0,0.0,93,0.00,,,0.18,fowsr,2013-06-11 02:35:00,
2013-06-10 22:40:00,73.6,71.6,29.51,NW,315,1.6,4.5,92,0.00,,,0.18,fowsr,2013-06-11 02:40:00,
2013-06-10 22:45:00,73.6,71.6,29.51,East,90,1.6,4.5,92,0.00,,,0.18,fowsr,2013-06-11 02:45:00,
2013-06-10 22:50:00,73.6,71.6,29.51,East,90,0.0,2.2,92,0.00,,,0.18,fowsr,2013-06-11 02:50:00,
2013-06-10 22:55:00,73.6,71.6,29.51,SE,135,0.0,0.0,92,0.00,,,0.18,fowsr,2013-06-11 02:55:00,
2013-06-10 23:00:00,73.6,71.6,29.51,SE,135,0.7,3.8,92,0.00,,,0.18,fowsr,2013-06-11 03:00:00,
2013-06-10 23:05:00,73.6,71.6,29.51,West,270,0.0,0.7,92,0.00,,,0.18,fowsr,2013-06-11 03:05:00,
2013-06-10 23:10:00,73.4,71.4,29.51,SE,135,0.7,1.6,92,0.00,,,0.18,fowsr,2013-06-11 03:10:00,
2013-06-10 23:15:00,73.4,71.4,29.51,South,180,0.0,1.6,92,0.00,,,0.18,fowsr,2013-06-11 03:15:00,
2013-06-10 23:20:00,73.4,71.4,29.50,SW,225,0.7,2.2,92,0.00,,,0.18,fowsr,2013-06-11 03:20:00,
2013-06-10 23:25:00,73.4,71.4,29.50,SW,225,0.0,0.7,92,0.00,,,0.18,fowsr,2013-06-11 03:25:00,
2013-06-10 23:30:00,73.2,70.8,29.51,NE,45,0.0,1.6,90,0.00,,,0.18,fowsr,2013-06-11 03:30:00,
2013-06-10 23:35:00,73.2,70.8,29.50,NW,315,0.0,1.6,90,0.00,,,0.18,fowsr,2013-06-11 03:35:00,
2013-06-10 23:40:00,73.0,70.6,29.50,SE,135,0.0,0.7,90,0.00,,,0.18,fowsr,2013-06-11 03:40:00,
2013-06-10 23:45:00,73.0,70.6,29.50,SW,225,2.2,3.1,90,0.00,,,0.18,fowsr,2013-06-11 03:45:00,
2013-06-10 23:50:00,72.9,70.4,29.50,East,90,0.0,1.6,90,0.00,,,0.18,fowsr,2013-06-11 03:50:00,
2013-06-10 23:55:00,72.9,70.7,29.50,South,180,0.0,0.0,91,0.00,,,0.18,fowsr,2013-06-11 03:55:00,